Lid_Strength_Index
5 5 5 6 6 7 9 11 11 5 6 10 12 12 10 8 8 8 9 10 10 11 10 11 10 10 8 7 8 10 10 13 13 11 9 8 10 11 13 15 15 15 15 14
5 5 5 6 6 7 11 14 12 6 6 12 12 11 9 8 8 8 9 9 9 10 11 13 9 8 7 6 8 10 10 13 15 13 12 10 11 10 12 13 14 15 16 14
6 5 5 6 6 7 11 12 12 8 9 10 11 13 11 10 6 8 8 8 8 9 10 11 11 9 7 7 8 4 7 13 13 15 13 12 12 11 11 13 15 15 14 12
6 6 5 6 6 7 11 11 10 10 12 10 11 10 9 9 9 8 8 10 9 10 12 11 11 9 9 8 6 9 10 13 12 12 11 11 11 10 11 14 13 14 13 13
5 6 6 6 7 8 10 11 11 10 11 10 12 12 11 9 9 9 9 10 9 9 10 10 11 10 11 10 10 12 12 14 12 13 9 9 10 9 9 11 12 13 13 13
5 5 5 6 7 9 13 11 10 11 11 11 12 12 10 9 9 7 7 7 8 8 8 8 8 9 9 9 11 11 12 12 13 15 11 11 13 11 10 10 10 10 13 10
5 5 5 6 6 8 12 12 12 13 14 13 11 9 9 9 8 9 7 6 9 7 7 7 8 8 8 8 10 9 11 12 13 14 14 18 11 9 8 9 8 8 9 9
3 5 5 5 6 7 12 12 12 12 14 11 11 11 11 9 8 8 8 7 7 8 9 11 12 12 11 10 9 10 10 12 14 15 15 12 10 8 9 11 11 8 9 8
3 3 4 5 5 6 11 12 11 11 13 13 10 11 11 12 12 10 9 7 7 9 11 12 15 15 13 12 11 11 12 12 13 14 16 17 11 7 6 7 13 8 7 8
3 3 3 4 4 5 8 11 11 12 13 11 11 12 11 10 11 11 10 9 8 9 12 13 14 14 11 13 14 14 14 13 14 14 15 12 8 6 6 14 12 7 7 7
3 3 3 3 4 3 7 9 9 11 12 10 9 8 10 10 10 12 10 9 9 9 12 12 13 13 11 12 12 12 13 13 14 14 16 16 7 8 11 9 8 7 7 7
2 2 2 3 3 3 5 10 8 7 10 10 8 8 7 7 8 10 10 10 10 9 11 11 11 12 11 12 14 10 12 11 12 12 12 9 7 7 7 6 7 7 7 6
2 2 2 2 2 2 4 9 9 9 10 10 11 10 8 8 8 8 11 10 8 10 9 10 11 12 10 14 13 12 11 10 11 10 8 7 7 6 5 5 6 6 6 6
1 1 1 2 2 3 3 9 8 9 10 12 11 6 8 5 7 6 6 7 9 9 10 11 12 11 9 11 10 11 10 10 10 10 9 7 6 6 6 6 5 5 5 5
1 1 1 1 1 3 5 7 7 7 9 12 11 7 7 7 7 6 6 8 9 10 11 11 11 10 9 10 11 10 10 10 11 11 9 8 7 5 4 4 5 5 5 5
1 1 1 1 1 2 7 10 7 6 7 10 13 9 8 7 7 7 6 7 7 8 10 11 10 8 9 12 13 10 8 7 7 8 6 6 5 4 4 5 4 4 4 5
1 1 1 1 2 6 9 9 6 5 7 9 12 11 7 6 8 8 7 8 8 9 10 10 10 9 9 12 12 10 7 6 6 6 6 6 5 6 5 4 4 4 3 3
1 1 1 2 2 4 8 6 3 4 8 8 12 11 9 7 9 9 8 9 9 9 9 10 10 10 9 12 9 7 7 6 6 5 4 5 5 5 5 4 4 5 4 4
1 1 1 4 6 8 6 1 2 4 6 9 10 12 12 7 9 8 7 8 11 8 10 10 9 11 12 9 8 7 6 6 6 6 5 5 6 5 5 4 4 5 5 5
1 4 6 9 5 -0 1 5 7 7 7 8 11 10 11 9 10 10 8 8 10 12 9 8 11 10 7 6 6 6 6 5 5 7 7 7 6 6 5 5 4 4 5 4
6 6 6 2 -1 4 5 9 8 9 10 8 9 9 11 8 10 11 8 10 10 13 11 11 12 11 9 6 6 5 6 5 5 4 5 4 5 6 5 5 4 4 4 4
4 3 2 2 6 6 9 10 9 9 10 8 9 9 9 8 7 9 8 11 10 14 9 12 14 10 7 7 6 5 5 5 5 4 4 4 4 4 4 4 4 4 4 3
3 4 5 6 7 11 12 12 11 11 7 7 7 8 7 7 6 9 10 12 13 8 12 13 11 8 7 6 5 6 5 4 4 4 4 4 4 3 4 4 4 4 4 3
5 7 10 10 11 10 10 10 9 7 7 7 7 8 9 8 9 9 12 10 10 13 14 13 10 8 7 6 5 5 5 5 5 4 4 4 4 4 4 4 4 4 4 4
6 7 11 10 7 7 6 6 7 6 5 7 8 8 7 9 10 9 10 12 14 12 13 11 8 6 6 6 5 5 6 5 5 4 4 4 4 4 5 4 4 3 3 4
6 6 8 8 9 8 7 7 7 5 6 6 6 9 10 11 10 11 12 13 14 12 9 7 6 6 6 6 5 5 5 5 5 4 4 4 4 4 4 4 4 3 3 3
6 8 7 7 8 9 7 7 6 4 6 9 8 11 11 9 11 12 11 12 10 8 7 6 6 6 5 5 5 5 4 4 4 4 4 4 3 4 5 6 4 4 5 4